World > North America > United States > Illinois

Echo Lake, Illinois Regional Weather

Lat: 42.21N, Lon: 88.09W
Wx Zone: ILZ006Web Search

Helpful Tip: Abbreviated, 7 Day, 14 Day Forecasts. There is a weather forecast for every taste.

Feedback


°F Click to change Echo Lake hourly weather to Imperial units.Click to change Echo Lake hourly weather to Metric units. °C
Echo Lake Weather Map
UTC Time: 5/16/2021, 14:27
Your Time:

Echo Lake, IL Regional Weather

Expires:202105161500;;205597
ASUS43 KLOT 161409
RWRIL 

ILLINOIS REGIONAL WEATHER ROUNDUP
NATIONAL WEATHER SERVICE CHICAGO/ROMEOVILLE IL
900 AM CDT SUN MAY 16 2021

NOTE: "FAIR" INDICATES FEW OR NO CLOUDS BELOW 12,000 FEET WITH NO
SIGNIFICANT WEATHER AND/OR OBSTRUCTIONS TO VISIBILITY.

* THESE STATIONS ARE NOT UNDER NWS QUALITY CONTROL. THEY ALSO MAY NOT
  REPORT WEATHER SUCH AS PRECIPITATION OR FOG.


ILZ005-006-012>014-019>023-161500-
NORTHEAST ILLINOIS
  
CITY           SKY/WX    TMP DP  RH WIND       PRES   REMARKS
CHICAGO-OHARE  PTSUNNY   61  46  57 SW5       30.20R                  
CHICAGO-MIDWAY PTSUNNY   63  42  46 NW3       30.21R                  
AURORA         MOSUNNY   61  49  64 CALM      30.20R                  
JOLIET*        CLOUDY    62  49  62 S3        30.22R                  
WAUKEGAN       MOSUNNY   61  50  67 SW5       30.20F                  
DUPAGE AIRPORT SUNNY     61  49  64 CALM      30.20S                  
KANKAKEE*      CLOUDY    60  48  64 CALM      30.22S                  
WHEELING       PTSUNNY   63  47  55 SW3       30.21F                  
MORRIS*        CLOUDY    59  50  71 S3        30.21R                  
ROMEOVILLE*    PTSUNNY   61  48  63 CALM      30.21S                  
LANSING*       SUNNY     63  45  51 CALM      30.21F                  
$$


SKY/WX - Weather  TMP - Temperature  DP - Dew Point  RH - Relative Humidity
WIND - Wind Direction/Speed PRES - Barometric Pressure VSB - Visibility
WCI - Wind Chill Index E13G22 Wind - East Wind 13 mph/Gusts of 22 mph